Theta_e
352 354 353 351 350 352 352 354 353 353 352 351 350 350 350 349 346 345 343 341 338 331 329 331 333 340 340 342 342 341 340 339 340 340 340 340 340 338 335 336 338 339 338
352 350 352 352 352 351 352 355 353 353 353 351 350 350 350 348 346 342 341 337 332 329 328 330 329 327 325 325 326 329 336 339 339 339 340 341 339 338 337 335 334 337 337
353 347 353 352 354 355 355 352 352 354 354 353 350 350 349 346 346 343 340 337 331 330 331 331 328 329 329 327 324 324 323 326 333 337 338 338 338 338 340 336 337 337 338
351 354 355 354 356 354 354 353 353 354 356 354 351 350 350 347 345 342 340 335 332 331 331 330 328 328 329 327 326 325 323 322 320 328 332 332 335 337 336 340 338 339 336
351 355 353 354 356 355 354 353 352 354 352 350 352 350 349 348 345 343 339 336 335 334 332 330 329 328 329 326 325 323 323 322 321 320 326 333 334 336 336 334 335 337 335
353 355 356 356 356 355 355 354 351 348 348 350 349 350 347 349 348 344 340 337 336 336 334 332 329 329 327 326 327 328 324 322 322 322 323 330 332 333 334 335 336 335 336
354 354 356 356 356 356 356 354 351 343 341 338 344 348 349 349 349 346 342 339 337 337 335 333 331 329 331 332 328 328 328 326 324 327 328 326 330 332 332 332 335 334 336
351 355 357 355 357 356 354 355 351 347 338 338 340 338 342 340 344 347 344 341 338 337 336 334 332 331 330 330 327 329 328 327 327 327 327 328 328 329 331 331 331 332 334
350 352 357 354 357 355 355 353 351 344 340 334 335 336 330 334 330 337 341 342 341 338 338 335 333 331 330 328 324 324 326 324 325 326 326 327 328 328 327 330 332 332 335
353 354 357 356 357 357 355 354 351 346 335 336 330 330 330 333 332 328 334 335 333 333 338 337 333 332 329 326 323 324 323 320 323 324 324 325 327 328 328 329 332 332 332
353 351 357 357 358 359 356 356 354 345 330 329 326 326 322 321 321 316 315 319 323 332 332 337 333 331 328 326 325 324 324 323 323 323 322 325 326 327 328 331 332 334 335
353 351 356 355 359 358 357 356 353 345 327 324 325 323 322 320 320 319 316 317 320 328 330 332 332 330 327 325 326 324 323 322 322 321 323 323 325 328 328 331 333 335 336
350 350 354 355 358 359 358 357 353 345 331 326 326 324 323 322 322 322 322 319 319 325 328 328 329 327 325 324 323 321 322 322 321 321 323 323 325 327 328 331 331 334 336
351 354 355 355 357 359 360 357 354 348 341 335 326 324 325 324 324 325 326 323 319 321 326 327 327 326 325 324 321 319 319 321 320 320 322 323 325 326 326 327 327 328 335
348 357 357 356 356 358 360 358 356 351 344 337 324 320 326 327 327 326 325 324 322 321 321 326 326 326 325 322 319 318 318 319 319 319 320 323 324 326 326 325 325 325 326
344 357 357 354 355 358 360 358 357 353 347 340 328 319 324 327 328 326 325 325 325 323 322 326 326 326 324 321 320 318 317 316 318 320 321 322 324 326 326 325 326 326 325
339 345 356 355 356 357 358 358 358 355 348 341 332 323 328 327 327 327 326 326 327 326 323 325 325 325 322 322 320 318 316 316 317 318 317 321 324 325 325 325 323 326 326
344 349 353 356 356 356 357 359 358 356 351 343 336 324 327 326 326 327 325 325 326 327 325 323 324 323 320 321 319 317 316 316 316 317 316 322 325 325 327 324 323 327 327
347 351 352 357 357 355 354 357 359 358 352 346 336 327 327 328 326 323 323 324 326 325 323 323 322 321 319 319 317 316 315 315 316 315 319 324 325 326 325 323 329 337 336
349 348 349 348 353 354 353 355 358 358 354 345 334 327 329 327 324 320 323 322 322 322 322 321 321 321 321 318 316 315 314 314 315 315 322 324 326 326 325 322 330 336 336
355 351 349 348 348 351 354 353 356 358 354 341 330 328 327 325 318 319 323 323 323 321 320 320 319 319 320 318 317 315 314 314 313 314 320 322 325 325 324 323 321 336 337
358 357 356 355 353 351 353 356 356 357 352 341 330 328 323 317 318 321 322 321 320 321 318 317 318 319 319 319 315 315 315 315 313 314 317 318 323 324 323 323 322 328 336
359 359 359 359 358 357 354 353 356 357 352 339 331 326 318 318 319 320 319 319 318 317 318 318 317 317 319 318 316 315 314 314 313 314 316 315 319 322 324 325 324 324 331
360 360 361 361 362 361 357 355 354 357 350 340 331 326 318 319 321 321 320 320 318 317 317 317 317 317 318 318 317 315 314 314 313 314 315 314 316 316 325 327 327 324 324
361 362 360 362 363 360 357 355 355 354 347 339 333 324 319 320 322 323 321 321 319 317 316 317 317 317 318 317 315 314 313 313 313 313 314 315 315 317 319 323 326 327 324
361 361 363 364 361 361 359 358 356 353 345 338 330 323 319 321 323 323 323 322 320 318 316 317 317 316 317 315 314 314 313 313 312 312 314 315 315 315 317 317 324 325 325
Wind_Speed
3 5 7 9 9 6 7 8 8 5 2 3 5 7 6 11 11 10 10 9 7 7 9 12 13 11 8 4 2 1 3 5 9 15 19 20 22 24 27 22 19 19 22
4 5 8 8 5 5 5 5 4 5 1 7 7 8 11 13 13 12 12 11 9 5 6 10 10 10 10 9 8 6 4 1 3 5 10 14 20 23 22 20 18 21 22
5 6 8 7 7 7 4 5 4 3 1 6 9 11 15 15 15 12 11 13 12 8 3 4 4 7 8 8 10 11 10 5 3 5 6 7 11 16 21 20 19 20 18
4 6 10 11 8 5 7 8 6 4 3 6 12 15 16 16 15 13 14 14 12 13 9 6 3 3 2 4 6 9 11 12 8 6 6 6 10 12 16 20 22 21 21
2 6 9 11 7 6 8 9 9 8 6 1 9 13 16 19 18 15 17 16 15 13 14 11 9 5 4 2 1 4 6 8 8 6 8 8 7 12 14 18 20 20 24
1 4 7 7 5 7 9 9 8 10 7 2 2 11 12 17 19 21 20 17 17 16 15 12 12 7 6 5 1 3 4 7 7 5 6 8 8 9 12 16 17 18 19
1 3 5 7 6 9 9 9 5 8 8 7 1 2 7 11 18 21 19 19 18 18 16 15 12 11 8 6 3 2 4 6 7 8 6 7 8 8 9 12 18 20 20
1 2 4 6 6 7 8 7 6 4 6 9 2 2 1 1 6 15 20 21 18 19 20 19 16 14 12 6 2 5 6 6 7 7 9 5 5 9 10 12 15 20 22
3 4 3 5 5 5 6 5 6 5 3 4 6 1 1 3 2 4 14 17 20 22 23 20 18 12 9 5 1 5 6 9 8 8 7 6 6 6 8 10 14 18 24
6 5 3 1 2 3 5 4 5 6 3 0 2 6 3 1 2 2 2 8 10 16 23 23 21 14 11 4 2 7 10 9 8 8 7 6 7 7 8 9 11 17 22
7 6 6 4 2 1 3 1 3 6 4 2 2 3 2 5 3 2 2 3 0 11 7 21 23 17 9 2 6 6 8 7 9 9 8 7 6 3 3 5 8 13 18
5 7 8 6 5 2 2 1 3 4 4 2 3 2 2 1 2 1 0 2 1 8 3 12 16 13 6 2 3 4 7 9 9 9 9 7 7 3 1 3 3 11 15
9 11 12 8 7 5 3 2 1 2 2 2 3 1 0 1 1 1 0 1 0 1 4 5 12 10 4 5 2 1 7 9 10 11 11 7 7 5 2 3 4 5 13
11 14 11 8 8 8 6 3 3 3 3 4 4 1 3 2 1 2 2 2 1 3 1 3 9 8 4 4 4 4 6 10 12 13 11 9 8 5 4 5 5 1 11
11 5 9 9 8 9 9 6 4 4 4 4 4 2 1 1 1 1 2 3 2 2 1 4 4 6 5 3 3 5 8 9 14 13 11 11 9 7 6 6 6 8 9
13 9 9 9 10 12 10 9 6 5 5 3 4 3 2 1 1 1 2 3 2 3 2 1 1 7 8 5 4 6 10 11 12 14 14 13 9 5 8 11 12 16 18
15 14 15 13 11 11 11 11 8 6 6 4 4 2 2 1 2 2 4 3 1 1 5 4 5 8 8 5 3 7 10 11 11 12 10 13 10 8 11 18 21 24 25
17 14 16 18 14 12 11 13 12 10 8 8 5 4 2 1 1 3 5 5 4 5 5 10 8 3 7 4 4 6 10 11 12 13 14 15 9 12 19 24 25 21 29
21 18 16 19 19 16 14 14 14 13 10 9 7 6 4 3 2 4 5 4 3 8 8 11 6 5 6 6 7 7 10 12 13 14 15 18 12 16 26 32 6 8 12
26 25 23 22 22 19 16 16 16 17 13 11 8 7 5 4 2 1 2 7 10 9 9 10 9 7 6 4 5 5 10 15 16 15 17 19 16 20 29 34 19 15 16
28 27 26 25 24 21 20 18 17 19 16 13 10 8 5 4 2 2 3 5 6 7 6 9 6 3 4 4 3 4 6 12 20 17 20 25 28 27 36 42 37 25 29
28 26 25 24 24 22 21 18 19 20 19 17 14 10 9 7 7 8 7 4 2 2 6 8 6 3 4 4 7 5 4 5 4 16 18 25 28 28 32 38 42 44 34
28 28 27 26 26 23 22 19 20 22 21 19 17 14 14 13 12 11 10 11 12 9 3 5 9 6 4 4 6 3 3 9 7 8 11 17 28 29 26 32 37 46 56
28 29 28 28 27 22 19 17 20 20 23 21 18 16 17 18 15 12 11 11 12 13 10 8 6 4 4 5 1 5 11 12 10 9 9 10 23 27 28 28 30 37 40
26 26 23 26 27 18 14 14 19 20 22 22 20 19 20 21 18 13 12 11 11 11 10 8 6 6 6 5 5 11 12 10 7 10 11 7 14 23 29 29 28 27 31
24 23 26 28 22 18 14 14 19 21 24 25 23 22 22 21 20 16 13 11 11 10 10 10 11 10 8 9 7 5 10 10 8 3 4 3 7 7 7 23 29 28 27
Wind_Direction
346 352 2 13 15 359 356 13 20 4 304 207 190 208 177 161 157 161 162 164 149 99 86 86 82 76 83 115 141 255 260 262 254 243 237 233 225 214 212 218 221 215 216
346 353 0 7 6 333 326 8 5 14 66 191 191 192 178 171 174 178 168 152 129 104 88 89 79 68 65 62 58 46 31 354 308 248 235 230 226 221 218 216 218 218 215
327 1 24 357 324 341 4 15 12 11 52 191 195 189 191 189 188 183 173 158 157 151 166 109 75 78 63 60 57 45 30 9 280 264 259 232 227 229 220 225 218 214 210
354 44 34 26 17 57 17 15 4 331 274 188 196 199 203 198 199 198 183 180 181 173 162 162 145 111 54 73 56 42 37 20 349 296 281 261 244 245 233 223 219 224 222
37 31 36 26 14 25 16 17 32 55 55 61 212 203 206 207 206 203 193 194 191 184 175 180 176 170 222 198 77 57 32 14 356 319 268 273 269 243 236 227 224 229 228
351 32 33 14 51 15 18 20 50 59 52 360 309 200 212 219 216 210 204 200 201 195 192 187 186 188 207 188 143 8 4 355 347 319 286 267 267 258 239 233 228 224 226
9 44 37 35 45 13 17 29 40 50 40 19 129 133 205 233 227 220 214 212 208 207 205 202 196 194 193 169 156 34 358 352 344 324 308 281 256 257 246 238 231 226 221
253 339 27 30 31 7 17 36 33 35 34 24 26 95 349 338 225 230 222 223 221 220 216 214 209 200 194 190 75 25 11 5 346 331 313 297 281 249 252 243 235 227 219
277 298 327 17 24 19 28 44 36 42 4 25 34 138 64 243 340 216 228 235 237 235 232 224 218 214 182 170 334 352 10 3 353 336 320 300 298 266 253 250 232 226 219
266 279 257 294 15 30 27 42 29 20 3 281 14 59 64 240 179 312 164 214 244 257 242 228 222 210 190 159 326 321 345 357 350 339 338 319 298 296 262 258 243 224 217
262 267 239 258 294 2 29 38 16 21 18 0 359 253 301 44 52 119 273 302 67 360 249 224 221 205 175 169 324 11 3 360 356 354 346 330 316 299 258 274 241 214 208
276 273 228 252 236 275 347 34 10 20 19 8 17 28 18 289 301 91 176 289 313 35 111 202 207 183 154 20 64 20 6 0 1 360 1 349 343 359 87 28 251 201 194
274 286 235 236 229 239 261 317 306 5 31 14 349 356 31 279 267 268 219 261 94 92 72 141 159 161 153 119 87 48 23 12 9 9 9 355 353 351 357 351 50 196 196
287 309 210 221 240 231 229 255 278 311 339 350 343 268 292 237 230 297 290 198 8 24 108 137 168 163 135 93 81 48 44 19 19 13 13 357 5 9 333 307 287 169 189
287 286 214 225 233 226 224 226 251 284 299 327 333 293 254 267 154 61 28 319 210 165 321 193 157 191 165 141 69 41 33 25 22 15 10 7 12 356 339 322 283 251 224
266 258 239 244 229 217 226 225 236 253 261 294 314 306 286 283 305 85 29 32 15 154 120 191 116 178 164 113 69 30 18 19 29 18 9 4 9 1 354 338 308 268 238
243 245 249 235 224 219 227 227 227 238 244 250 275 271 252 133 319 328 331 316 317 173 123 102 112 142 117 125 60 20 15 20 23 9 357 4 11 5 354 335 311 272 238
239 229 235 231 226 236 240 231 230 232 253 238 247 242 211 222 285 318 326 320 285 214 142 124 128 108 119 127 73 19 20 24 19 13 14 9 22 16 355 345 309 263 216
237 233 233 234 237 239 244 243 239 235 242 234 239 243 228 230 281 328 352 32 77 146 135 139 124 121 118 125 70 44 43 34 28 23 32 31 43 24 12 12 0 147 182
243 243 243 245 246 244 249 248 243 232 234 226 219 231 221 247 288 335 88 103 117 125 127 130 125 129 135 114 81 63 52 41 34 45 47 45 49 35 29 26 82 114 114
247 247 249 251 255 252 250 245 245 229 222 212 203 208 207 179 128 66 119 128 132 131 133 128 125 130 120 139 108 121 74 53 38 41 52 48 50 47 37 43 61 127 125
252 251 249 250 251 249 249 251 247 227 216 208 189 183 168 155 128 117 110 103 74 157 154 140 136 151 121 137 144 141 357 353 345 34 48 50 58 56 53 51 60 102 132
249 250 252 253 254 253 249 246 247 234 215 204 189 178 167 154 144 131 113 94 73 67 95 155 155 172 122 157 166 158 51 80 73 35 44 35 62 62 63 62 60 75 110
246 249 251 254 255 257 262 240 241 235 211 202 193 187 180 166 159 150 133 107 91 75 77 101 122 126 95 128 151 131 118 102 81 54 55 36 58 59 72 73 74 73 80
249 252 255 254 252 255 262 248 231 216 206 198 194 189 187 176 170 167 150 129 110 90 85 87 106 106 103 87 111 144 127 110 73 64 71 36 45 62 74 77 79 83 87
248 257 260 259 261 255 250 245 225 211 201 194 192 190 193 188 181 179 171 155 132 116 102 107 109 106 96 92 109 160 147 130 124 81 79 71 42 30 52 73 91 90 92